Wetterdaten: Samstag, 08.06.2013
Datum Zeit Temperatur Luftfeuchte Luftdruck Regen Wind Richtung Richtung Taupunkt Windchill Windben
08.06.2013 00:00 10,4 C 88 % 1021,1 hPa 0,0 l/m 0,0 km/h (0 Bft) S 180 8,5 C 10,5 C 0,0 km/h (0 Bft)
08.06.2013 00:05 10,4 C 89 % 1021,1 hPa 0,0 l/m 0,0 km/h (0 Bft) O 90 8,7 C 10,5 C 0,0 km/h (0 Bft)
08.06.2013 00:10 10,2 C 89 % 1021,1 hPa 0,0 l/m 0,0 km/h (0 Bft) O 90 8,5 C 10,3 C 0,0 km/h (0 Bft)
08.06.2013 00:15 10,3 C 89 % 1021,1 hPa 0,0 l/m 0,0 km/h (0 Bft) O-SO 112 8,6 C 10,3 C 0,0 km/h (0 Bft)
08.06.2013 00:20 10,2 C 89 % 1020,9 hPa 0,0 l/m 0,0 km/h (0 Bft) SO 135 8,5 C 10,1 C 0,0 km/h (0 Bft)
08.06.2013 00:25 10,1 C 89 % 1020,9 hPa 0,0 l/m 0,0 km/h (0 Bft) S 180 8,4 C 10,0 C 0,0 km/h (0 Bft)
08.06.2013 00:30 10,0 C 89 % 1020,9 hPa 0,0 l/m 0,0 km/h (0 Bft) S 180 8,3 C 10,0 C 0,0 km/h (0 Bft)
08.06.2013 00:35 10,1 C 89 % 1020,9 hPa 0,0 l/m 0,0 km/h (0 Bft) O-SO 112 8,4 C 9,8 C 0,0 km/h (0 Bft)
08.06.2013 00:40 10,1 C 89 % 1020,6 hPa 0,0 l/m 0,0 km/h (0 Bft) S 180 8,4 C 9,8 C 0,0 km/h (0 Bft)
08.06.2013 00:45 9,9 C 89 % 1020,6 hPa 0,0 l/m 0,0 km/h (0 Bft) O 90 8,2 C 9,7 C 0,0 km/h (0 Bft)
08.06.2013 00:50 9,9 C 89 % 1020,6 hPa 0,0 l/m 0,0 km/h (0 Bft) O 90 8,2 C 9,7 C 0,0 km/h (0 Bft)
08.06.2013 00:55 9,9 C 89 % 1020,6 hPa 0,0 l/m 0,0 km/h (0 Bft) O-SO 112 8,2 C 9,8 C 0,0 km/h (0 Bft)
08.06.2013 01:00 10,0 C 89 % 1020,6 hPa 0,0 l/m 0,2 km/h (0 Bft) O-SO 112 8,3 C 9,8 C 0,0 km/h (0 Bft)
08.06.2013 01:05 9,9 C 90 % 1020,6 hPa 0,0 l/m 0,2 km/h (0 Bft) O-NO 67 8,3 C 9,9 C 0,0 km/h (0 Bft)
08.06.2013 01:10 9,8 C 90 % 1020,6 hPa 0,0 l/m 0,0 km/h (0 Bft) O-NO 67 8,2 C 9,8 C 0,0 km/h (0 Bft)
08.06.2013 01:15 9,8 C 90 % 1020,6 hPa 0,0 l/m 0,0 km/h (0 Bft) O 90 8,2 C 9,7 C 0,0 km/h (0 Bft)
08.06.2013 01:20 9,7 C 90 % 1020,6 hPa 0,0 l/m 0,0 km/h (0 Bft) O 90 8,1 C 9,7 C 0,0 km/h (0 Bft)
08.06.2013 01:25 9,7 C 90 % 1020,6 hPa 0,0 l/m 0,0 km/h (0 Bft) O-NO 67 8,1 C 9,6 C 0,0 km/h (0 Bft)
08.06.2013 01:30 9,7 C 90 % 1020,6 hPa 0,0 l/m 0,0 km/h (0 Bft) NO 45 8,1 C 9,5 C 0,0 km/h (0 Bft)
08.06.2013 01:35 9,9 C 91 % 1020,6 hPa 0,0 l/m 0,0 km/h (0 Bft) NO 45 8,5 C 9,5 C 0,0 km/h (0 Bft)
08.06.2013 01:40 9,9 C 91 % 1020,4 hPa 0,0 l/m 0,2 km/h (0 Bft) O 90 8,5 C 9,5 C 0,0 km/h (0 Bft)
08.06.2013 01:45 9,6 C 91 % 1020,4 hPa 0,0 l/m 0,0 km/h (0 Bft) NO 45 8,2 C 9,4 C 0,0 km/h (0 Bft)
08.06.2013 01:50 9,4 C 90 % 1020,4 hPa 0,0 l/m 0,0 km/h (0 Bft) O 90 7,8 C 9,3 C 0,0 km/h (0 Bft)
08.06.2013 01:55 9,2 C 90 % 1020,4 hPa 0,0 l/m 0,0 km/h (0 Bft) O 90 7,6 C 9,2 C 0,0 km/h (0 Bft)
08.06.2013 02:00 9,1 C 90 % 1020,3 hPa 0,0 l/m 0,0 km/h (0 Bft) N-NO 22 7,5 C 9,0 C 0,0 km/h (0 Bft)
08.06.2013 02:05 9,0 C 90 % 1020,3 hPa 0,0 l/m 0,0 km/h (0 Bft) O 90 7,4 C 8,8 C 0,0 km/h (0 Bft)
08.06.2013 02:10 8,9 C 90 % 1020,3 hPa 0,0 l/m 0,0 km/h (0 Bft) O 90 7,4 C 8,9 C 0,0 km/h (0 Bft)
08.06.2013 02:15 8,9 C 90 % 1020,3 hPa 0,0 l/m 0,0 km/h (0 Bft) O 90 7,4 C 8,9 C 0,0 km/h (0 Bft)
08.06.2013 02:20 8,9 C 90 % 1020,2 hPa 0,0 l/m 0,0 km/h (0 Bft) NO 45 7,4 C 8,8 C 0,0 km/h (0 Bft)
08.06.2013 02:25 8,7 C 90 % 1020,2 hPa 0,0 l/m 0,0 km/h (0 Bft) O 90 7,2 C 8,6 C 0,0 km/h (0 Bft)
08.06.2013 02:30 8,6 C 90 % 1020,2 hPa 0,0 l/m 0,0 km/h (0 Bft) N 360 7,1 C 8,5 C 0,0 km/h (0 Bft)
08.06.2013 02:35 8,5 C 90 % 1020,2 hPa 0,0 l/m 0,0 km/h (0 Bft) N-NO 22 7,0 C 8,4 C 0,0 km/h (0 Bft)
08.06.2013 02:40 8,5 C 90 % 1020,1 hPa 0,0 l/m 0,0 km/h (0 Bft) NO 45 7,0 C 8,5 C 0,0 km/h (0 Bft)
08.06.2013 02:45 8,9 C 91 % 1020,1 hPa 0,0 l/m 0,0 km/h (0 Bft) N-NO 22 7,5 C 8,5 C 0,0 km/h (0 Bft)
08.06.2013 02:50 8,9 C 91 % 1020,1 hPa 0,0 l/m 0,0 km/h (0 Bft) NO 45 7,5 C 8,6 C 0,0 km/h (0 Bft)
08.06.2013 02:55 9,3 C 91 % 1020,1 hPa 0,0 l/m 0,0 km/h (0 Bft) NO 45 7,9 C 8,8 C 0,0 km/h (0 Bft)
08.06.2013 03:00 9,4 C 91 % 1020,1 hPa 0,0 l/m 0,0 km/h (0 Bft) O 90 8,0 C 8,9 C 0,0 km/h (0 Bft)
08.06.2013 03:05 9,2 C 91 % 1020,1 hPa 0,0 l/m 0,0 km/h (0 Bft) O 90 7,8 C 9,2 C 0,0 km/h (0 Bft)
08.06.2013 03:10 9,1 C 91 % 1020,1 hPa 0,0 l/m 0,0 km/h (0 Bft) O 90 7,7 C 9,2 C 0,0 km/h (0 Bft)
08.06.2013 03:15 8,8 C 91 % 1020,1 hPa 0,0 l/m 0,0 km/h (0 Bft) O 90 7,4 C 8,9 C 0,0 km/h (0 Bft)
08.06.2013 03:20 8,7 C 91 % 1019,9 hPa 0,0 l/m 0,0 km/h (0 Bft) N 360 7,3 C 8,7 C 0,0 km/h (0 Bft)
08.06.2013 03:25 8,5 C 91 % 1019,9 hPa 0,0 l/m 0,0 km/h (0 Bft) N 360 7,1 C 8,5 C 0,0 km/h (0 Bft)
08.06.2013 03:30 8,4 C 91 % 1019,9 hPa 0,0 l/m 0,0 km/h (0 Bft) N-NO 22 7,0 C 8,5 C 0,0 km/h (0 Bft)
08.06.2013 03:35 8,9 C 92 % 1019,9 hPa 0,0 l/m 0,3 km/h (0 Bft) NO 45 7,7 C 8,5 C 1,6 km/h (1 Bft)
08.06.2013 03:40 8,8 C 92 % 1019,9 hPa 0,0 l/m 0,3 km/h (0 Bft) O 90 7,6 C 8,6 C 0,0 km/h (0 Bft)
08.06.2013 03:45 8,9 C 92 % 1019,9 hPa 0,0 l/m 0,2 km/h (0 Bft) SO 135 7,7 C 8,8 C 0,0 km/h (0 Bft)
08.06.2013 03:50 9,1 C 92 % 1019,9 hPa 0,0 l/m 0,3 km/h (0 Bft) O-NO 67 7,9 C 8,8 C 0,0 km/h (0 Bft)
08.06.2013 03:55 8,8 C 92 % 1019,9 hPa 0,0 l/m 0,3 km/h (0 Bft) NO 45 7,6 C 8,8 C 0,0 km/h (0 Bft)
08.06.2013 04:00 8,7 C 92 % 1019,8 hPa 0,0 l/m 0,0 km/h (0 Bft) NO 45 7,5 C 8,7 C 2,4 km/h (1 Bft)
08.06.2013 04:05 8,6 C 92 % 1019,8 hPa 0,0 l/m 0,0 km/h (0 Bft) NO 45 7,4 C 8,5 C 0,0 km/h (0 Bft)
08.06.2013 04:10 8,6 C 92 % 1019,8 hPa 0,0 l/m 0,0 km/h (0 Bft) NO 45 7,4 C 8,5 C 0,0 km/h (0 Bft)
08.06.2013 04:15 8,5 C 92 % 1019,8 hPa 0,0 l/m 0,0 km/h (0 Bft) NO 45 7,3 C 8,4 C 0,0 km/h (0 Bft)
08.06.2013 04:20 8,5 C 92 % 1019,6 hPa 0,0 l/m 0,0 km/h (0 Bft) NO 45 7,3 C 8,3 C 0,0 km/h (0 Bft)
08.06.2013 04:25 8,7 C 92 % 1019,6 hPa 0,0 l/m 0,2 km/h (0 Bft) NO 45 7,5 C 8,3 C 0,0 km/h (0 Bft)
08.06.2013 04:30 8,2 C 92 % 1019,6 hPa 0,0 l/m 0,2 km/h (0 Bft) NO 45 7,0 C 8,3 C 0,0 km/h (0 Bft)
08.06.2013 04:35 8,4 C 92 % 1019,6 hPa 0,0 l/m 0,2 km/h (0 Bft) O-NO 67 7,2 C 8,2 C 1,9 km/h (1 Bft)
08.06.2013 04:40 8,4 C 92 % 1019,5 hPa 0,0 l/m 0,2 km/h (0 Bft) N-NO 22 7,2 C 8,2 C 0,0 km/h (0 Bft)
08.06.2013 04:45 8,2 C 92 % 1019,5 hPa 0,0 l/m 0,2 km/h (0 Bft) NO 45 7,0 C 8,1 C 0,0 km/h (0 Bft)
08.06.2013 04:50 8,2 C 92 % 1019,5 hPa 0,0 l/m 0,0 km/h (0 Bft) NO 45 7,0 C 7,9 C 0,0 km/h (0 Bft)
08.06.2013 04:55 8,1 C 92 % 1019,5 hPa 0,0 l/m 0,0 km/h (0 Bft) NO 45 6,9 C 7,9 C 0,0 km/h (0 Bft)
08.06.2013 05:00 7,9 C 92 % 1019,6 hPa 0,0 l/m 0,0 km/h (0 Bft) NO 45 6,7 C 7,9 C 0,0 km/h (0 Bft)
08.06.2013 05:05 7,6 C 92 % 1019,6 hPa 0,0 l/m 0,0 km/h (0 Bft) O-NO 67 6,4 C 7,6 C 0,0 km/h (0 Bft)
08.06.2013 05:10 7,6 C 92 % 1019,6 hPa 0,0 l/m 0,0 km/h (0 Bft) N-NO 22 6,4 C 7,5 C 0,0 km/h (0 Bft)
08.06.2013 05:15 7,3 C 91 % 1019,6 hPa 0,0 l/m 0,0 km/h (0 Bft) N-NO 22 5,9 C 7,3 C 0,0 km/h (0 Bft)
08.06.2013 05:20 7,3 C 91 % 1019,4 hPa 0,0 l/m 0,0 km/h (0 Bft) N-NO 22 5,9 C 7,4 C 0,0 km/h (0 Bft)
08.06.2013 05:25 7,1 C 91 % 1019,4 hPa 0,0 l/m 0,0 km/h (0 Bft) N-NO 22 5,7 C 7,4 C 0,0 km/h (0 Bft)
08.06.2013 05:30 7,3 C 91 % 1019,4 hPa 0,0 l/m 0,0 km/h (0 Bft) N-NO 22 5,9 C 7,4 C 0,0 km/h (0 Bft)
08.06.2013 05:35 7,4 C 92 % 1019,4 hPa 0,0 l/m 0,0 km/h (0 Bft) NO 45 6,2 C 7,4 C 0,0 km/h (0 Bft)
08.06.2013 05:40 7,3 C 91 % 1019,3 hPa 0,0 l/m 0,0 km/h (0 Bft) NO 45 5,9 C 7,3 C 0,0 km/h (0 Bft)
08.06.2013 05:45 7,6 C 92 % 1019,3 hPa 0,0 l/m 0,0 km/h (0 Bft) N-NO 22 6,4 C 7,3 C 0,0 km/h (0 Bft)
08.06.2013 05:50 7,4 C 92 % 1019,3 hPa 0,0 l/m 0,0 km/h (0 Bft) N-NO 22 6,2 C 7,5 C 0,0 km/h (0 Bft)
08.06.2013 05:55 8,0 C 92 % 1019,3 hPa 0,0 l/m 0,0 km/h (0 Bft) N-NO 22 6,8 C 8,2 C 0,0 km/h (0 Bft)
08.06.2013 06:00 8,7 C 92 % 1019,9 hPa 0,0 l/m 0,0 km/h (0 Bft) N-NO 22 7,5 C 8,8 C 0,0 km/h (0 Bft)
08.06.2013 06:05 9,4 C 92 % 1019,9 hPa 0,0 l/m 0,0 km/h (0 Bft) N-NO 22 8,2 C 9,2 C 0,0 km/h (0 Bft)
08.06.2013 06:10 9,8 C 92 % 1019,9 hPa 0,0 l/m 0,2 km/h (0 Bft) N-NO 22 8,6 C 9,6 C 0,0 km/h (0 Bft)
08.06.2013 06:15 9,5 C 92 % 1019,9 hPa 0,0 l/m 0,2 km/h (0 Bft) N-NO 22 8,3 C 9,6 C 0,0 km/h (0 Bft)
08.06.2013 06:20 9,6 C 92 % 1019,9 hPa 0,0 l/m 0,0 km/h (0 Bft) NO 45 8,4 C 9,7 C 0,0 km/h (0 Bft)
08.06.2013 06:25 9,9 C 91 % 1019,9 hPa 0,0 l/m 0,0 km/h (0 Bft) O-NO 67 8,5 C 9,6 C 0,0 km/h (0 Bft)
08.06.2013 06:30 11,1 C 91 % 1019,9 hPa 0,0 l/m 0,0 km/h (0 Bft) O-NO 67 9,7 C 10,1 C 0,0 km/h (0 Bft)
08.06.2013 06:35 11,5 C 90 % 1019,9 hPa 0,0 l/m 0,0 km/h (0 Bft) N 360 9,9 C 11,5 C 0,0 km/h (0 Bft)
08.06.2013 06:40 11,8 C 89 % 1019,8 hPa 0,0 l/m 0,0 km/h (0 Bft) N 360 10,0 C 12,2 C 0,0 km/h (0 Bft)
08.06.2013 06:45 13,5 C 88 % 1019,8 hPa 0,0 l/m 0,0 km/h (0 Bft) NO 45 11,6 C 13,3 C 0,0 km/h (0 Bft)
08.06.2013 06:50 11,9 C 88 % 1019,8 hPa 0,0 l/m 0,0 km/h (0 Bft) NO 45 10,0 C 13,9 C 0,0 km/h (0 Bft)
08.06.2013 06:55 14,0 C 87 % 1019,8 hPa 0,0 l/m 0,0 km/h (0 Bft) N 360 11,9 C 14,0 C 0,0 km/h (0 Bft)
08.06.2013 07:00 15,2 C 86 % 1019,9 hPa 0,0 l/m 0,0 km/h (0 Bft) NO 45 12,9 C 14,5 C 0,0 km/h (0 Bft)
08.06.2013 07:05 15,9 C 79 % 1019,9 hPa 0,0 l/m 0,0 km/h (0 Bft) NO 45 12,3 C 15,8 C 0,0 km/h (0 Bft)
08.06.2013 07:10 16,6 C 78 % 1019,9 hPa 0,0 l/m 0,0 km/h (0 Bft) W 270 12,7 C 16,6 C 0,0 km/h (0 Bft)
08.06.2013 07:15 16,1 C 68 % 1019,9 hPa 0,0 l/m 0,0 km/h (0 Bft) S-SW 202 10,2 C 17,2 C 0,0 km/h (0 Bft)
08.06.2013 07:20 18,0 C 73 % 1019,9 hPa 0,0 l/m 0,0 km/h (0 Bft) NO 45 13,1 C 17,6 C 0,0 km/h (0 Bft)
08.06.2013 07:25 18,3 C 68 % 1019,9 hPa 0,0 l/m 0,0 km/h (0 Bft) NO 45 12,3 C 18,7 C 0,0 km/h (0 Bft)
08.06.2013 07:30 18,0 C 61 % 1019,9 hPa 0,0 l/m 0,0 km/h (0 Bft) N 360 10,4 C 19,0 C 0,0 km/h (0 Bft)
08.06.2013 07:35 19,1 C 64 % 1019,9 hPa 0,0 l/m 0,0 km/h (0 Bft) NO 45 12,1 C 19,4 C 0,0 km/h (0 Bft)
08.06.2013 07:40 19,6 C 65 % 1019,9 hPa 0,0 l/m 0,0 km/h (0 Bft) O 90 12,8 C 19,9 C 0,0 km/h (0 Bft)
08.06.2013 07:45 20,5 C 63 % 1019,9 hPa 0,0 l/m 0,0 km/h (0 Bft) W-SW 247 13,2 C 20,8 C 0,0 km/h (0 Bft)
08.06.2013 07:50 21,9 C 60 % 1019,9 hPa 0,0 l/m 0,0 km/h (0 Bft) W-SW 247 13,8 C 21,3 C 0,0 km/h (0 Bft)
08.06.2013 07:55 20,5 C 59 % 1019,9 hPa 0,0 l/m 0,0 km/h (0 Bft) NO 45 12,2 C 21,7 C 0,0 km/h (0 Bft)
08.06.2013 08:00 21,0 C 58 % 1020,0 hPa 0,0 l/m 0,0 km/h (0 Bft) NO 45 12,4 C 22,1 C 0,0 km/h (0 Bft)
08.06.2013 08:05 21,4 C 58 % 1020,0 hPa 0,0 l/m 0,0 km/h (0 Bft) W-NW 292 12,8 C 22,8 C 0,0 km/h (0 Bft)
08.06.2013 08:10 21,5 C 56 % 1020,0 hPa 0,0 l/m 0,0 km/h (0 Bft) W-NW 292 12,3 C 23,2 C 0,0 km/h (0 Bft)
08.06.2013 08:15 21,9 C 56 % 1020,0 hPa 0,0 l/m 0,5 km/h (0 Bft) W-NW 292 12,7 C 22,8 C 0,0 km/h (0 Bft)
08.06.2013 08:20 21,8 C 54 % 1020,1 hPa 0,0 l/m 0,5 km/h (0 Bft) N-NW 337 12,1 C 23,1 C 1,6 km/h (1 Bft)
08.06.2013 08:25 22,7 C 56 % 1020,1 hPa 0,0 l/m 1,1 km/h (1 Bft) N-NW 337 13,5 C 22,9 C 3,5 km/h (1 Bft)
08.06.2013 08:30 22,1 C 53 % 1020,1 hPa 0,0 l/m 1,8 km/h (1 Bft) NW 315 12,1 C 22,6 C 2,7 km/h (1 Bft)
08.06.2013 08:35 23,3 C 53 % 1020,1 hPa 0,0 l/m 1,6 km/h (1 Bft) W 270 13,2 C 23,0 C 2,4 km/h (1 Bft)
08.06.2013 08:40 24,1 C 47 % 1020,2 hPa 0,0 l/m 0,8 km/h (0 Bft) N-NW 337 12,1 C 23,5 C 0,0 km/h (0 Bft)
08.06.2013 08:45 23,5 C 48 % 1020,2 hPa 0,0 l/m 1,1 km/h (1 Bft) N-NO 22 11,8 C 23,6 C 2,1 km/h (1 Bft)
08.06.2013 08:50 23,0 C 48 % 1020,2 hPa 0,0 l/m 1,4 km/h (1 Bft) N-NW 337 11,4 C 23,8 C 3,9 km/h (1 Bft)
08.06.2013 08:55 23,1 C 48 % 1020,2 hPa 0,0 l/m 1,3 km/h (1 Bft) W-NW 292 11,5 C 24,3 C 4,5 km/h (1 Bft)
08.06.2013 09:00 23,6 C 49 % 1020,2 hPa 0,0 l/m 1,3 km/h (1 Bft) S-SW 202 12,2 C 24,1 C 4,8 km/h (1 Bft)
08.06.2013 09:05 23,6 C 47 % 1020,2 hPa 0,0 l/m 2,1 km/h (1 Bft) W-SW 247 11,6 C 24,0 C 3,7 km/h (1 Bft)
08.06.2013 09:10 24,0 C 49 % 1020,2 hPa 0,0 l/m 1,9 km/h (1 Bft) W-NW 292 12,6 C 24,0 C 6,1 km/h (2 Bft)
08.06.2013 09:15 23,5 C 47 % 1020,2 hPa 0,0 l/m 1,8 km/h (1 Bft) W-SW 247 11,5 C 24,4 C 3,5 km/h (1 Bft)
08.06.2013 09:20 24,3 C 47 % 1020,4 hPa 0,0 l/m 1,1 km/h (1 Bft) W-SW 247 12,3 C 24,6 C 1,6 km/h (1 Bft)
08.06.2013 09:25 23,4 C 46 % 1020,4 hPa 0,0 l/m 1,1 km/h (1 Bft) W-SW 247 11,1 C 25,2 C 1,8 km/h (1 Bft)
08.06.2013 09:30 24,2 C 46 % 1020,4 hPa 0,0 l/m 1,0 km/h (0 Bft) S-SW 202 11,8 C 25,4 C 0,0 km/h (0 Bft)
08.06.2013 09:35 24,5 C 46 % 1020,4 hPa 0,0 l/m 1,1 km/h (1 Bft) NW 315 12,1 C 25,6 C 2,9 km/h (1 Bft)
08.06.2013 09:40 23,9 C 46 % 1020,4 hPa 0,0 l/m 2,1 km/h (1 Bft) W 270 11,6 C 25,3 C 4,8 km/h (1 Bft)
08.06.2013 09:45 23,4 C 44 % 1020,4 hPa 0,0 l/m 3,1 km/h (1 Bft) W-NW 292 10,4 C 24,9 C 2,6 km/h (1 Bft)
08.06.2013 09:50 23,9 C 47 % 1020,4 hPa 0,0 l/m 2,6 km/h (1 Bft) W-NW 292 11,9 C 25,2 C 5,3 km/h (1 Bft)
08.06.2013 09:55 24,6 C 45 % 1020,4 hPa 0,0 l/m 2,9 km/h (1 Bft) W-SW 247 11,9 C 24,8 C 4,5 km/h (1 Bft)
08.06.2013 10:00 24,0 C 42 % 1020,4 hPa 0,0 l/m 3,7 km/h (1 Bft) NO 45 10,3 C 24,7 C 6,6 km/h (2 Bft)
08.06.2013 10:05 24,0 C 44 % 1020,4 hPa 0,0 l/m 3,4 km/h (1 Bft) N 360 11,0 C 24,8 C 5,1 km/h (1 Bft)
08.06.2013 10:10 23,8 C 43 % 1020,4 hPa 0,0 l/m 2,7 km/h (1 Bft) W 270 10,5 C 24,8 C 6,8 km/h (2 Bft)
08.06.2013 10:15 23,6 C 43 % 1020,4 hPa 0,0 l/m 3,2 km/h (1 Bft) W-NW 292 10,3 C 25,0 C 4,2 km/h (1 Bft)
08.06.2013 10:20 23,7 C 43 % 1020,6 hPa 0,0 l/m 3,4 km/h (1 Bft) W-NW 292 10,4 C 24,8 C 4,7 km/h (1 Bft)
08.06.2013 10:25 24,6 C 43 % 1020,6 hPa 0,0 l/m 3,1 km/h (1 Bft) W-SW 247 11,2 C 24,9 C 0,0 km/h (0 Bft)
08.06.2013 10:30 23,6 C 42 % 1020,6 hPa 0,0 l/m 3,2 km/h (1 Bft) W-NW 292 9,9 C 25,3 C 6,9 km/h (2 Bft)
08.06.2013 10:35 24,1 C 42 % 1020,6 hPa 0,0 l/m 3,2 km/h (1 Bft) W-NW 292 10,4 C 25,0 C 0,0 km/h (0 Bft)
08.06.2013 10:40 24,0 C 41 % 1020,4 hPa 0,0 l/m 3,1 km/h (1 Bft) W-SW 247 9,9 C 25,4 C 7,4 km/h (2 Bft)
08.06.2013 10:45 23,9 C 41 % 1020,4 hPa 0,0 l/m 2,6 km/h (1 Bft) W-SW 247 9,8 C 25,8 C 6,3 km/h (2 Bft)
08.06.2013 10:50 23,9 C 40 % 1020,4 hPa 0,0 l/m 3,7 km/h (1 Bft) W-NW 292 9,5 C 25,2 C 3,9 km/h (1 Bft)
08.06.2013 10:55 24,0 C 41 % 1020,4 hPa 0,0 l/m 4,0 km/h (1 Bft) W-NW 292 9,9 C 25,2 C 5,8 km/h (2 Bft)
08.06.2013 11:00 24,4 C 42 % 1020,4 hPa 0,0 l/m 3,1 km/h (1 Bft) W-SW 247 10,6 C 25,3 C 2,1 km/h (1 Bft)
08.06.2013 11:05 24,7 C 40 % 1020,4 hPa 0,0 l/m 3,4 km/h (1 Bft) N-NW 337 10,2 C 25,4 C 3,9 km/h (1 Bft)
08.06.2013 11:10 24,8 C 39 % 1020,4 hPa 0,0 l/m 3,5 km/h (1 Bft) W-NW 292 9,9 C 25,5 C 5,6 km/h (1 Bft)
08.06.2013 11:15 24,7 C 39 % 1020,4 hPa 0,0 l/m 2,9 km/h (1 Bft) N 360 9,8 C 25,8 C 2,4 km/h (1 Bft)
08.06.2013 11:20 24,3 C 38 % 1020,7 hPa 0,0 l/m 3,5 km/h (1 Bft) N 360 9,1 C 25,9 C 8,0 km/h (2 Bft)
08.06.2013 11:25 24,9 C 39 % 1020,7 hPa 0,0 l/m 3,4 km/h (1 Bft) W-SW 247 10,0 C 26,0 C 4,8 km/h (1 Bft)
08.06.2013 11:30 25,4 C 38 % 1020,7 hPa 0,0 l/m 2,7 km/h (1 Bft) S 180 10,0 C 26,2 C 3,5 km/h (1 Bft)
08.06.2013 11:35 25,0 C 39 % 1020,7 hPa 0,0 l/m 3,4 km/h (1 Bft) O-SO 112 10,1 C 26,1 C 0,0 km/h (0 Bft)
08.06.2013 11:40 25,0 C 38 % 1020,7 hPa 0,0 l/m 3,2 km/h (1 Bft) S 180 9,7 C 26,5 C 7,2 km/h (2 Bft)
08.06.2013 11:45 24,5 C 39 % 1020,7 hPa 0,0 l/m 3,2 km/h (1 Bft) N-NW 337 9,6 C 26,0 C 5,0 km/h (1 Bft)
08.06.2013 11:50 25,2 C 39 % 1020,7 hPa 0,0 l/m 4,2 km/h (1 Bft) N 360 10,2 C 25,9 C 4,8 km/h (1 Bft)
08.06.2013 11:55 25,3 C 39 % 1020,7 hPa 0,0 l/m 3,4 km/h (1 Bft) W-SW 247 10,3 C 26,0 C 4,0 km/h (1 Bft)
08.06.2013 12:00 25,5 C 37 % 1020,9 hPa 0,0 l/m 3,2 km/h (1 Bft) S-SO 157 9,7 C 26,3 C 4,8 km/h (1 Bft)
08.06.2013 12:05 24,5 C 38 % 1020,9 hPa 0,0 l/m 4,0 km/h (1 Bft) N-NW 337 9,2 C 26,2 C 8,0 km/h (2 Bft)
08.06.2013 12:10 24,5 C 38 % 1020,9 hPa 0,0 l/m 4,0 km/h (1 Bft) O 90 9,2 C 26,1 C 8,2 km/h (2 Bft)
08.06.2013 12:15 24,8 C 37 % 1020,9 hPa 0,0 l/m 2,4 km/h (1 Bft) W-NW 292 9,1 C 26,4 C 0,0 km/h (0 Bft)
08.06.2013 12:20 24,8 C 37 % 1020,7 hPa 0,0 l/m 2,1 km/h (1 Bft) N 360 9,1 C 27,1 C 6,3 km/h (2 Bft)
08.06.2013 12:25 24,7 C 38 % 1020,7 hPa 0,0 l/m 2,9 km/h (1 Bft) N 360 9,4 C 27,2 C 5,8 km/h (2 Bft)
08.06.2013 12:30 24,8 C 39 % 1020,7 hPa 0,0 l/m 3,4 km/h (1 Bft) W 270 9,9 C 26,9 C 3,9 km/h (1 Bft)
08.06.2013 12:35 25,5 C 39 % 1020,7 hPa 0,0 l/m 4,3 km/h (1 Bft) W 270 10,5 C 26,7 C 8,0 km/h (2 Bft)
08.06.2013 12:40 25,5 C 38 % 1020,6 hPa 0,0 l/m 4,5 km/h (1 Bft) W-NW 292 10,1 C 26,7 C 3,1 km/h (1 Bft)
08.06.2013 12:45 24,4 C 42 % 1020,6 hPa 0,0 l/m 4,0 km/h (1 Bft) S-SW 202 10,6 C 26,4 C 2,4 km/h (1 Bft)
08.06.2013 12:50 24,5 C 41 % 1020,6 hPa 0,0 l/m 4,2 km/h (1 Bft) O 90 10,4 C 26,7 C 11,6 km/h (2 Bft)
08.06.2013 12:55 25,2 C 42 % 1020,6 hPa 0,0 l/m 3,9 km/h (1 Bft) S 180 11,4 C 27,0 C 3,2 km/h (1 Bft)
08.06.2013 13:00 25,4 C 41 % 1020,4 hPa 0,0 l/m 3,7 km/h (1 Bft) N-NW 337 11,2 C 27,5 C 6,4 km/h (2 Bft)
08.06.2013 13:05 23,8 C 41 % 1020,4 hPa 0,0 l/m 4,3 km/h (1 Bft) W-NW 292 9,7 C 27,0 C 6,1 km/h (2 Bft)
08.06.2013 13:10 24,1 C 41 % 1020,4 hPa 0,0 l/m 5,0 km/h (1 Bft) W-NW 292 10,0 C 25,8 C 5,5 km/h (1 Bft)
08.06.2013 13:15 25,2 C 40 % 1020,4 hPa 0,0 l/m 4,8 km/h (1 Bft) W 270 10,6 C 26,1 C 4,8 km/h (1 Bft)
08.06.2013 13:20 24,7 C 39 % 1020,2 hPa 0,0 l/m 5,1 km/h (1 Bft) W-NW 292 9,8 C 26,3 C 7,6 km/h (2 Bft)
08.06.2013 13:25 25,2 C 40 % 1020,2 hPa 0,0 l/m 4,8 km/h (1 Bft) NW 315 10,6 C 26,3 C 8,2 km/h (2 Bft)
08.06.2013 13:30 25,1 C 39 % 1020,2 hPa 0,0 l/m 5,6 km/h (1 Bft) W-SW 247 10,2 C 26,4 C 5,3 km/h (1 Bft)
08.06.2013 13:35 23,6 C 41 % 1020,2 hPa 0,0 l/m 5,8 km/h (2 Bft) W 270 9,6 C 26,1 C 9,0 km/h (2 Bft)
08.06.2013 13:40 22,5 C 44 % 1020,0 hPa 0,0 l/m 4,5 km/h (1 Bft) N-NW 337 9,6 C 25,0 C 12,2 km/h (2 Bft)
08.06.2013 13:45 23,9 C 43 % 1020,0 hPa 0,0 l/m 3,4 km/h (1 Bft) N 360 10,5 C 25,0 C 2,9 km/h (1 Bft)
08.06.2013 13:50 23,6 C 42 % 1020,0 hPa 0,0 l/m 3,7 km/h (1 Bft) W 270 9,9 C 25,2 C 3,4 km/h (1 Bft)
08.06.2013 13:55 24,7 C 41 % 1020,0 hPa 0,0 l/m 4,7 km/h (1 Bft) W 270 10,6 C 25,3 C 7,9 km/h (2 Bft)
08.06.2013 14:00 25,7 C 39 % 1019,8 hPa 0,0 l/m 4,2 km/h (1 Bft) W 270 10,7 C 25,8 C 0,0 km/h (0 Bft)
08.06.2013 14:05 25,8 C 36 % 1019,8 hPa 0,0 l/m 3,9 km/h (1 Bft) W-SW 247 9,6 C 27,2 C 5,5 km/h (1 Bft)
08.06.2013 14:10 24,3 C 39 % 1019,8 hPa 0,0 l/m 4,0 km/h (1 Bft) W-SW 247 9,4 C 26,9 C 6,3 km/h (2 Bft)
08.06.2013 14:15 23,1 C 40 % 1019,8 hPa 0,0 l/m 5,6 km/h (1 Bft) W-NW 292 8,8 C 25,3 C 9,3 km/h (2 Bft)
08.06.2013 14:20 22,9 C 42 % 1019,5 hPa 0,0 l/m 5,0 km/h (1 Bft) W 270 9,3 C 24,5 C 5,6 km/h (1 Bft)
08.06.2013 14:25 24,6 C 40 % 1019,5 hPa 0,0 l/m 4,7 km/h (1 Bft) W 270 10,1 C 24,7 C 6,6 km/h (2 Bft)
08.06.2013 14:30 24,9 C 39 % 1019,5 hPa 0,0 l/m 5,6 km/h (1 Bft) N-NW 337 10,0 C 25,2 C 9,8 km/h (2 Bft)
08.06.2013 14:35 25,1 C 37 % 1019,5 hPa 0,0 l/m 5,6 km/h (1 Bft) N 360 9,4 C 26,1 C 9,2 km/h (2 Bft)
08.06.2013 14:40 25,2 C 38 % 1019,1 hPa 0,0 l/m 5,1 km/h (1 Bft) W-SW 247 9,9 C 26,4 C 4,5 km/h (1 Bft)
08.06.2013 14:45 24,7 C 38 % 1019,1 hPa 0,0 l/m 6,3 km/h (2 Bft) W-NW 292 9,4 C 26,5 C 6,1 km/h (2 Bft)
08.06.2013 14:50 25,0 C 37 % 1019,1 hPa 0,0 l/m 5,5 km/h (1 Bft) W 270 9,3 C 26,6 C 12,9 km/h (3 Bft)
08.06.2013 14:55 25,2 C 37 % 1019,1 hPa 0,0 l/m 4,5 km/h (1 Bft) W-NW 292 9,5 C 26,9 C 5,1 km/h (1 Bft)
08.06.2013 15:00 25,4 C 36 % 1019,2 hPa 0,0 l/m 5,3 km/h (1 Bft) NW 315 9,2 C 27,1 C 4,5 km/h (1 Bft)
08.06.2013 15:05 25,7 C 36 % 1019,2 hPa 0,0 l/m 5,3 km/h (1 Bft) W-SW 247 9,5 C 27,1 C 5,6 km/h (1 Bft)
08.06.2013 15:10 25,8 C 36 % 1019,2 hPa 0,0 l/m 5,1 km/h (1 Bft) SW 225 9,6 C 27,2 C 5,5 km/h (1 Bft)
08.06.2013 15:15 25,7 C 35 % 1019,2 hPa 0,0 l/m 5,6 km/h (1 Bft) N 360 9,1 C 27,4 C 8,0 km/h (2 Bft)
08.06.2013 15:20 25,1 C 35 % 1019,1 hPa 0,0 l/m 5,3 km/h (1 Bft) N 360 8,6 C 27,6 C 7,7 km/h (2 Bft)
08.06.2013 15:25 24,9 C 36 % 1019,1 hPa 0,0 l/m 4,7 km/h (1 Bft) W-NW 292 8,8 C 27,9 C 7,7 km/h (2 Bft)
08.06.2013 15:30 25,3 C 36 % 1019,1 hPa 0,0 l/m 4,3 km/h (1 Bft) S-SW 202 9,1 C 28,0 C 6,3 km/h (2 Bft)
08.06.2013 15:35 26,0 C 36 % 1019,1 hPa 0,0 l/m 4,3 km/h (1 Bft) W 270 9,8 C 28,1 C 6,8 km/h (2 Bft)
08.06.2013 15:40 25,9 C 34 % 1018,9 hPa 0,0 l/m 4,5 km/h (1 Bft) NW 315 8,8 C 28,0 C 4,3 km/h (1 Bft)
08.06.2013 15:45 26,3 C 35 % 1018,9 hPa 0,0 l/m 4,2 km/h (1 Bft) N-NW 337 9,6 C 28,1 C 1,6 km/h (1 Bft)
08.06.2013 15:50 25,7 C 34 % 1018,9 hPa 0,0 l/m 4,0 km/h (1 Bft) NW 315 8,6 C 28,5 C 6,6 km/h (2 Bft)
08.06.2013 15:55 25,3 C 34 % 1018,9 hPa 0,0 l/m 5,0 km/h (1 Bft) NW 315 8,3 C 28,1 C 3,4 km/h (1 Bft)
08.06.2013 16:00 25,6 C 34 % 1018,7 hPa 0,0 l/m 5,1 km/h (1 Bft) NW 315 8,6 C 28,3 C 7,9 km/h (2 Bft)
08.06.2013 16:05 25,6 C 33 % 1018,7 hPa 0,0 l/m 4,8 km/h (1 Bft) NW 315 8,1 C 28,1 C 4,5 km/h (1 Bft)
08.06.2013 16:10 25,3 C 33 % 1018,7 hPa 0,0 l/m 5,6 km/h (1 Bft) N-NW 337 7,9 C 28,1 C 7,4 km/h (2 Bft)
08.06.2013 16:15 25,2 C 32 % 1018,7 hPa 0,0 l/m 4,3 km/h (1 Bft) O 90 7,3 C 28,6 C 4,5 km/h (1 Bft)
08.06.2013 16:20 24,0 C 35 % 1018,7 hPa 0,0 l/m 4,3 km/h (1 Bft) SW 225 7,6 C 28,5 C 9,8 km/h (2 Bft)
08.06.2013 16:25 24,8 C 35 % 1018,7 hPa 0,0 l/m 4,7 km/h (1 Bft) N-NO 22 8,3 C 27,7 C 1,8 km/h (1 Bft)
08.06.2013 16:30 24,7 C 35 % 1018,7 hPa 0,0 l/m 4,5 km/h (1 Bft) W-NW 292 8,2 C 28,4 C 4,3 km/h (1 Bft)
08.06.2013 16:35 24,5 C 35 % 1018,7 hPa 0,0 l/m 4,2 km/h (1 Bft) W-NW 292 8,0 C 28,9 C 5,6 km/h (1 Bft)
08.06.2013 16:40 24,4 C 35 % 1018,4 hPa 0,0 l/m 5,0 km/h (1 Bft) W-NW 292 7,9 C 28,7 C 6,9 km/h (2 Bft)
08.06.2013 16:45 24,3 C 35 % 1018,4 hPa 0,0 l/m 5,1 km/h (1 Bft) W 270 7,8 C 28,1 C 6,8 km/h (2 Bft)
08.06.2013 16:50 24,0 C 36 % 1018,4 hPa 0,0 l/m 4,7 km/h (1 Bft) N-NO 22 8,0 C 28,5 C 3,5 km/h (1 Bft)
08.06.2013 16:55 23,4 C 37 % 1018,4 hPa 0,0 l/m 3,9 km/h (1 Bft) W 270 7,9 C 28,5 C 4,5 km/h (1 Bft)
08.06.2013 17:00 23,5 C 39 % 1018,2 hPa 0,0 l/m 4,3 km/h (1 Bft) W 270 8,7 C 27,7 C 4,2 km/h (1 Bft)
08.06.2013 17:05 23,2 C 39 % 1018,2 hPa 0,0 l/m 5,5 km/h (1 Bft) NW 315 8,5 C 27,4 C 9,2 km/h (2 Bft)
08.06.2013 17:10 23,5 C 38 % 1018,2 hPa 0,0 l/m 6,4 km/h (2 Bft) W-SW 247 8,4 C 27,3 C 5,8 km/h (2 Bft)
08.06.2013 17:15 23,4 C 40 % 1018,2 hPa 0,0 l/m 5,5 km/h (1 Bft) W-NW 292 9,0 C 28,4 C 11,3 km/h (2 Bft)
08.06.2013 17:20 23,1 C 40 % 1017,9 hPa 0,0 l/m 4,5 km/h (1 Bft) W 270 8,8 C 28,1 C 13,5 km/h (3 Bft)
08.06.2013 17:25 22,9 C 42 % 1017,9 hPa 0,0 l/m 5,1 km/h (1 Bft) W-SW 247 9,3 C 26,9 C 3,9 km/h (1 Bft)
08.06.2013 17:30 23,1 C 40 % 1017,9 hPa 0,0 l/m 3,7 km/h (1 Bft) SW 225 8,8 C 27,5 C 4,5 km/h (1 Bft)
08.06.2013 17:35 23,5 C 40 % 1017,9 hPa 0,0 l/m 2,6 km/h (1 Bft) W-NW 292 9,1 C 29,0 C 6,9 km/h (2 Bft)
08.06.2013 17:40 23,6 C 40 % 1017,6 hPa 0,0 l/m 3,5 km/h (1 Bft) W 270 9,2 C 29,2 C 6,0 km/h (2 Bft)
08.06.2013 17:45 23,6 C 40 % 1017,6 hPa 0,0 l/m 4,2 km/h (1 Bft) W-NW 292 9,2 C 29,3 C 6,1 km/h (2 Bft)
08.06.2013 17:50 23,5 C 39 % 1017,6 hPa 0,0 l/m 4,2 km/h (1 Bft) N-NW 337 8,7 C 29,2 C 5,3 km/h (1 Bft)
08.06.2013 17:55 23,4 C 41 % 1017,6 hPa 0,0 l/m 4,7 km/h (1 Bft) W-NW 292 9,4 C 29,0 C 7,9 km/h (2 Bft)
08.06.2013 18:00 23,0 C 41 % 1017,3 hPa 0,0 l/m 5,1 km/h (1 Bft) NW 315 9,0 C 28,4 C 5,3 km/h (1 Bft)
08.06.2013 18:05 22,5 C 43 % 1017,3 hPa 0,0 l/m 5,1 km/h (1 Bft) W 270 9,3 C 26,2 C 5,3 km/h (1 Bft)
08.06.2013 18:10 23,2 C 41 % 1017,3 hPa 0,0 l/m 4,5 km/h (1 Bft) W 270 9,2 C 26,1 C 4,8 km/h (1 Bft)
08.06.2013 18:15 23,5 C 41 % 1017,3 hPa 0,0 l/m 3,7 km/h (1 Bft) N 360 9,5 C 27,3 C 3,2 km/h (1 Bft)
08.06.2013 18:20 23,4 C 40 % 1017,1 hPa 0,0 l/m 4,0 km/h (1 Bft) W-NW 292 9,0 C 27,5 C 8,0 km/h (2 Bft)
08.06.2013 18:25 23,6 C 41 % 1017,1 hPa 0,0 l/m 4,8 km/h (1 Bft) W-NW 292 9,6 C 27,3 C 4,8 km/h (1 Bft)
08.06.2013 18:30 23,4 C 42 % 1017,1 hPa 0,0 l/m 4,5 km/h (1 Bft) W 270 9,7 C 27,4 C 2,4 km/h (1 Bft)
08.06.2013 18:35 23,1 C 40 % 1017,1 hPa 0,0 l/m 4,5 km/h (1 Bft) O-SO 112 8,8 C 27,6 C 12,1 km/h (2 Bft)
08.06.2013 18:40 22,8 C 43 % 1016,6 hPa 0,0 l/m 4,5 km/h (1 Bft) W-NW 292 9,6 C 27,1 C 6,0 km/h (2 Bft)
08.06.2013 18:45 22,4 C 43 % 1016,6 hPa 0,0 l/m 4,2 km/h (1 Bft) W 270 9,2 C 25,9 C 6,0 km/h (2 Bft)
08.06.2013 18:50 22,6 C 44 % 1016,6 hPa 0,0 l/m 4,2 km/h (1 Bft) N 360 9,7 C 25,5 C 3,5 km/h (1 Bft)
08.06.2013 18:55 22,5 C 43 % 1016,6 hPa 0,0 l/m 4,3 km/h (1 Bft) W-SW 247 9,3 C 25,7 C 5,1 km/h (1 Bft)
08.06.2013 19:00 22,5 C 44 % 1016,6 hPa 0,0 l/m 4,3 km/h (1 Bft) W-NW 292 9,6 C 25,9 C 6,4 km/h (2 Bft)
08.06.2013 19:05 22,2 C 46 % 1016,6 hPa 0,0 l/m 4,0 km/h (1 Bft) N 360 10,0 C 25,7 C 4,2 km/h (1 Bft)
08.06.2013 19:10 22,1 C 46 % 1016,6 hPa 0,0 l/m 3,7 km/h (1 Bft) W 270 9,9 C 25,0 C 4,2 km/h (1 Bft)
08.06.2013 19:15 21,8 C 47 % 1016,6 hPa 0,0 l/m 3,7 km/h (1 Bft) NW 315 10,0 C 24,3 C 3,1 km/h (1 Bft)
08.06.2013 19:20 21,8 C 47 % 1016,4 hPa 0,0 l/m 3,5 km/h (1 Bft) W-NW 292 10,0 C 24,1 C 7,4 km/h (2 Bft)
08.06.2013 19:25 21,8 C 48 % 1016,4 hPa 0,0 l/m 2,9 km/h (1 Bft) SO 135 10,3 C 24,0 C 0,0 km/h (0 Bft)
08.06.2013 19:30 21,9 C 48 % 1016,4 hPa 0,0 l/m 2,6 km/h (1 Bft) W-NW 292 10,4 C 24,4 C 3,7 km/h (1 Bft)
08.06.2013 19:35 21,7 C 48 % 1016,4 hPa 0,0 l/m 2,1 km/h (1 Bft) N-NW 337 10,2 C 24,3 C 4,2 km/h (1 Bft)
08.06.2013 19:40 21,3 C 50 % 1016,2 hPa 0,0 l/m 2,9 km/h (1 Bft) N 360 10,4 C 23,9 C 0,0 km/h (0 Bft)
08.06.2013 19:45 21,1 C 50 % 1016,2 hPa 0,0 l/m 3,2 km/h (1 Bft) N-NO 22 10,3 C 23,1 C 4,3 km/h (1 Bft)
08.06.2013 19:50 20,9 C 52 % 1016,2 hPa 0,0 l/m 3,2 km/h (1 Bft) N-NW 337 10,7 C 22,7 C 2,7 km/h (1 Bft)
08.06.2013 19:55 20,6 C 54 % 1016,2 hPa 0,0 l/m 2,7 km/h (1 Bft) N-NW 337 11,0 C 22,3 C 3,1 km/h (1 Bft)
08.06.2013 20:00 20,3 C 54 % 1016,0 hPa 0,0 l/m 3,1 km/h (1 Bft) O 90 10,7 C 21,9 C 4,3 km/h (1 Bft)
08.06.2013 20:05 20,2 C 54 % 1016,0 hPa 0,0 l/m 2,7 km/h (1 Bft) S-SO 157 10,6 C 21,5 C 0,0 km/h (0 Bft)
08.06.2013 20:10 19,9 C 55 % 1016,0 hPa 0,0 l/m 1,9 km/h (1 Bft) N 360 10,6 C 21,4 C 6,4 km/h (2 Bft)
08.06.2013 20:15 19,6 C 57 % 1016,0 hPa 0,0 l/m 1,9 km/h (1 Bft) N-NO 22 10,8 C 21,5 C 4,0 km/h (1 Bft)
08.06.2013 20:20 19,8 C 58 % 1016,0 hPa 0,0 l/m 2,7 km/h (1 Bft) NO 45 11,3 C 21,7 C 4,7 km/h (1 Bft)
08.06.2013 20:25 19,4 C 58 % 1016,0 hPa 0,0 l/m 1,9 km/h (1 Bft) NO 45 10,9 C 21,5 C 2,7 km/h (1 Bft)
08.06.2013 20:30 19,1 C 58 % 1016,0 hPa 0,0 l/m 1,8 km/h (1 Bft) NO 45 10,6 C 21,3 C 2,4 km/h (1 Bft)
08.06.2013 20:35 18,6 C 59 % 1016,0 hPa 0,0 l/m 1,3 km/h (1 Bft) N-NO 22 10,4 C 20,6 C 1,9 km/h (1 Bft)
08.06.2013 20:40 18,5 C 59 % 1015,9 hPa 0,0 l/m 1,0 km/h (0 Bft) O 90 10,3 C 20,4 C 0,0 km/h (0 Bft)
08.06.2013 20:45 18,2 C 60 % 1015,9 hPa 0,0 l/m 0,8 km/h (0 Bft) O-SO 112 10,3 C 20,0 C 2,1 km/h (1 Bft)
08.06.2013 20:50 18,2 C 60 % 1015,9 hPa 0,0 l/m 0,8 km/h (0 Bft) O 90 10,3 C 19,5 C 1,6 km/h (1 Bft)
08.06.2013 20:55 18,1 C 61 % 1015,9 hPa 0,0 l/m 1,3 km/h (1 Bft) O 90 10,5 C 18,8 C 2,3 km/h (1 Bft)
08.06.2013 21:00 18,0 C 62 % 1016,1 hPa 0,0 l/m 1,6 km/h (1 Bft) O-NO 67 10,6 C 18,5 C 2,9 km/h (1 Bft)
08.06.2013 21:05 17,7 C 63 % 1016,1 hPa 0,0 l/m 2,4 km/h (1 Bft) NO 45 10,6 C 17,9 C 3,2 km/h (1 Bft)
08.06.2013 21:10 17,6 C 64 % 1016,1 hPa 0,0 l/m 2,6 km/h (1 Bft) O 90 10,7 C 17,7 C 3,2 km/h (1 Bft)
08.06.2013 21:15 16,9 C 66 % 1016,1 hPa 0,0 l/m 2,1 km/h (1 Bft) N-NO 22 10,5 C 17,1 C 3,2 km/h (1 Bft)
08.06.2013 21:20 16,8 C 66 % 1015,4 hPa 0,0 l/m 1,9 km/h (1 Bft) O-SO 112 10,4 C 16,8 C 0,0 km/h (0 Bft)
08.06.2013 21:25 16,1 C 67 % 1015,4 hPa 0,0 l/m 0,8 km/h (0 Bft) O-SO 112 10,0 C 16,3 C 0,0 km/h (0 Bft)
08.06.2013 21:30 15,8 C 68 % 1015,4 hPa 0,0 l/m 0,0 km/h (0 Bft) O-NO 67 9,9 C 15,9 C 0,0 km/h (0 Bft)
08.06.2013 21:35 15,5 C 69 % 1015,4 hPa 0,0 l/m 0,0 km/h (0 Bft) O-NO 67 9,8 C 15,5 C 0,0 km/h (0 Bft)
08.06.2013 21:40 15,8 C 71 % 1015,3 hPa 0,0 l/m 0,6 km/h (0 Bft) O 90 10,6 C 15,4 C 1,8 km/h (1 Bft)
08.06.2013 21:45 15,7 C 71 % 1015,3 hPa 0,0 l/m 1,4 km/h (1 Bft) NO 45 10,5 C 15,2 C 0,0 km/h (0 Bft)
08.06.2013 21:50 15,5 C 71 % 1015,3 hPa 0,0 l/m 1,1 km/h (1 Bft) O-SO 112 10,3 C 15,1 C 0,0 km/h (0 Bft)
08.06.2013 21:55 14,9 C 72 % 1015,3 hPa 0,0 l/m 0,3 km/h (0 Bft) O 90 9,9 C 14,9 C 0,0 km/h (0 Bft)
08.06.2013 22:00 14,8 C 73 % 1015,3 hPa 0,0 l/m 0,2 km/h (0 Bft) O 90 10,0 C 14,6 C 1,6 km/h (1 Bft)
08.06.2013 22:05 14,5 C 74 % 1015,3 hPa 0,0 l/m 0,2 km/h (0 Bft) O 90 9,9 C 14,4 C 0,0 km/h (0 Bft)
08.06.2013 22:10 14,4 C 74 % 1015,3 hPa 0,0 l/m 0,3 km/h (0 Bft) O 90 9,8 C 14,2 C 0,0 km/h (0 Bft)
08.06.2013 22:15 14,2 C 75 % 1015,3 hPa 0,0 l/m 0,5 km/h (0 Bft) O 90 9,8 C 14,1 C 0,0 km/h (0 Bft)
08.06.2013 22:20 13,8 C 75 % 1015,6 hPa 0,0 l/m 0,3 km/h (0 Bft) O 90 9,4 C 13,9 C 0,0 km/h (0 Bft)
08.06.2013 22:25 14,3 C 77 % 1015,6 hPa 0,0 l/m 1,3 km/h (1 Bft) NO 45 10,3 C 13,9 C 2,6 km/h (1 Bft)
08.06.2013 22:30 14,4 C 77 % 1015,6 hPa 0,0 l/m 2,3 km/h (1 Bft) O 90 10,4 C 13,9 C 2,7 km/h (1 Bft)
08.06.2013 22:35 14,3 C 78 % 1015,6 hPa 0,0 l/m 1,4 km/h (1 Bft) O 90 10,5 C 14,0 C 0,0 km/h (0 Bft)
08.06.2013 22:40 14,3 C 78 % 1015,3 hPa 0,0 l/m 0,8 km/h (0 Bft) O 90 10,5 C 14,0 C 2,3 km/h (1 Bft)
08.06.2013 22:45 14,3 C 78 % 1015,3 hPa 0,0 l/m 0,6 km/h (0 Bft) O-SO 112 10,5 C 14,0 C 0,0 km/h (0 Bft)
08.06.2013 22:50 14,2 C 78 % 1015,3 hPa 0,0 l/m 0,5 km/h (0 Bft) O 90 10,4 C 13,9 C 0,0 km/h (0 Bft)
08.06.2013 22:55 14,3 C 78 % 1015,3 hPa 0,0 l/m 0,8 km/h (0 Bft) O 90 10,5 C 13,9 C 3,1 km/h (1 Bft)
08.06.2013 23:00 14,3 C 77 % 1015,0 hPa 0,0 l/m 1,1 km/h (1 Bft) SO 135 10,3 C 14,0 C 0,0 km/h (0 Bft)
08.06.2013 23:05 13,9 C 77 % 1015,0 hPa 0,0 l/m 0,5 km/h (0 Bft) SO 135 9,9 C 13,9 C 0,0 km/h (0 Bft)
08.06.2013 23:10 13,7 C 77 % 1015,0 hPa 0,0 l/m 0,0 km/h (0 Bft) SO 135 9,7 C 13,8 C 0,0 km/h (0 Bft)
08.06.2013 23:15 13,9 C 79 % 1015,0 hPa 0,0 l/m 0,5 km/h (0 Bft) O 90 10,3 C 13,7 C 2,1 km/h (1 Bft)
08.06.2013 23:20 13,8 C 79 % 1014,9 hPa 0,0 l/m 0,6 km/h (0 Bft) O-SO 112 10,2 C 13,6 C 0,0 km/h (0 Bft)
08.06.2013 23:25 13,3 C 78 % 1014,9 hPa 0,0 l/m 0,5 km/h (0 Bft) SO 135 9,5 C 13,4 C 0,0 km/h (0 Bft)
08.06.2013 23:30 13,0 C 79 % 1014,9 hPa 0,0 l/m 0,0 km/h (0 Bft) SO 135 9,4 C 13,2 C 0,0 km/h (0 Bft)
08.06.2013 23:35 13,1 C 80 % 1014,9 hPa 0,0 l/m 0,2 km/h (0 Bft) O 90 9,7 C 13,0 C 0,0 km/h (0 Bft)
08.06.2013 23:40 13,0 C 80 % 1014,9 hPa 0,0 l/m 0,2 km/h (0 Bft) NO 45 9,6 C 12,9 C 0,0 km/h (0 Bft)
08.06.2013 23:45 12,8 C 81 % 1014,9 hPa 0,0 l/m 0,0 km/h (0 Bft) O-SO 112 9,6 C 12,7 C 0,0 km/h (0 Bft)
08.06.2013 23:50 12,8 C 81 % 1014,9 hPa 0,0 l/m 0,0 km/h (0 Bft) O-SO 112 9,6 C 12,7 C 0,0 km/h (0 Bft)
08.06.2013 23:55 12,6 C 81 % 1014,9 hPa 0,0 l/m 0,0 km/h (0 Bft) O-SO 112 9,4 C 12,5 C 0,0 km/h (0 Bft)
_ Min-Zeit 05:25 16:15 23:55 - 23:55 - - 05:25 05:45 23:55
Minimum _ 7,1 C 32 % 1014,9 hPa - 0,0 km/h (0 Bft) - - 5,7 C 7,3 C 0,0 km/h (0 Bft)
_ Max-Zeit 15:45 06:20 00:15 23:55 17:10 - - 07:50 17:45 17:20
Maximum _ 26,3 C 92 % 1021,1 hPa 0,0 l/m 6,4 km/h
W-SW (2 Bft)
- - 13,8 C 29,3 C 13,5 km/h
W (3 Bft)
Durchschnitt _ 18,0 C 62 % 1018,9 hPa #0,0 l/m 2,0 km/h (1 Bft) W-NW - 9,5 C 19,2 C 2,8 km/h (1 Bft)